Regional Weather Roundup
Issued by NWS Grand Forks, ND

Home | Current Version | Previous Version | Graphics & Text | Print | Product List | Glossary On
Versions: 1 2 3 4 5 6 7 8 9 10 11 12 13 14 15 16 17 18 19 20 21 22 23 24 25 26 27 28 29 30 31 32 33 34 35 36 37 38 39 40 41 42 43 44 45 46 47 48 49 50
000
ASUS43 KFGF 230631
RWRFGF
PRAIRIE TO PINES  WEATHER ROUNDUP
NATIONAL WEATHER SERVICE EASTERN NORTH DAKOTA/GRAND FORKS ND
100 AM CDT SUN APR 23 2017

 **SATELLITE DATA USED TO AUGMENT SKY COVER AT AUTOMATED STATIONS**
 *****  WEATHER ACROSS EASTERN NORTH DAKOTA  *****

CITY           SKY/WX    TMP DP  RH WIND       PRES   REMARKS
GRAND FORKS    CLOUDY    35  26  69 N21       30.24R WCI  24
6HR MIN TEMP:  33; 6HR MAX TEMP:  40; 6HR PCP: TRACE;

GRAND FRKS AFB CLOUDY    33  23  68 NE16      30.24R WCI  22
DEVILS LAKE    FLURRIES  32  27  80 NE16      30.23F WCI  21
6HR MIN TEMP:  32; 6HR MAX TEMP:  36; 6HR PCP: TRACE;

FARGO          MOCLDY    37  33  85 N16       30.18R
WAHPETON ARPT  MOCLDY    41  34  75 N18G25    30.12R
$$

 ***** WEATHER ACROSS CENTRAL AND WESTERN NORTH DAKOTA  *****

CITY           SKY/WX    TMP DP  RH WIND       PRES   REMARKS
BISMARCK       CLOUDY    37  32  82 NE17G25   30.15S
6HR MIN TEMP:  38; 6HR MAX TEMP:  63;

MINOT          FLURRIES  33  27  78 E15       30.20S WCI  23
6HR MIN TEMP:  33; 6HR MAX TEMP:  41;

JAMESTOWN      CLOUDY    34  30  85 NE15      30.17S WCI  24
6HR MIN TEMP:  34; 6HR MAX TEMP:  53;

MINOT AFB      MIX PCPN  32  27  80 E23G29    30.19S WCI  19
GARRISON         N/A     32  28  85 E18G26    30.16S WCI  20
WILLISTON      CLOUDY    38  33  82 E14G22    30.12S
6HR MIN TEMP:  38; 6HR MAX TEMP:  48; 6HR PCP: TRACE;

DICKINSON      CLOUDY    36  33  89 E18       30.04F
6HR MIN TEMP:  36; 6HR MAX TEMP:  59; 6HR PCP: TRACE;

HETTINGER      MOCLDY    42  38  85 E20       30.02F
6HR MIN TEMP:  43; 6HR MAX TEMP:  63;

$$

 *****  OTHER AIRPORT OBSERVATIONS IN OUR AREA  *****

CITY           SKY/WX    TMP DP  RH WIND       PRES   REMARKS
WALHALLA       NOT AVBL
GRAFTON AIRPOR MOCLDY    30  23  74 N18G24    30.28S WCI  18
VALLEY CITY AR FLURRIES  32  32 100 NE18G28   30.21R WCI  20
CANDO          NOT AVBL
CAVALIER APRT  CLOUDY    30  19  64 N14G20    30.28S WCI  20
GWINNER        CLOUDY    36  32  87 MISG      30.15F
SHEYENNE NWR     N/A     36  30  80 N15       29.95S
ROLLA          CLOUDY    28  23  80 NE17      30.24S WCI  16
 ***** THE ABOVE OBSERVATIONS ARE NON NWS ARE NOT QUALITY
       CONTROLLED AND MAY MIS-REPORT RAIN FOR SNOW...
$$

  *****  WEATHER ACROSS NORTHERN MINNESOTA  *****

CITY           SKY/WX    TMP DP  RH WIND       PRES   REMARKS
FLAG ISLAND    FAIR      32  25  74 N17       30.24R WCI  21
WARROAD        FAIR      30  23  74 N9        30.24S WCI  22
ROSEAU         FAIR      30  21  69 N9        30.24S WCI  22
HALLOCK        CLOUDY    30  18  59 N12       30.27R WCI  21
THF RVR FALLS  CLOUDY    32  26  78 N17       30.22S WCI  21
6HR MIN TEMP:  32; 6HR MAX TEMP:  40; 6HR PCP: TRACE;

BAUDETTE       CLOUDY    34  26  72 N8        30.21R
6HR MIN TEMP:  33; 6HR MAX TEMP:  38; 6HR PCP: TRACE;

WASKISH        CLOUDY    32  30  93 N7        30.20R
CROOKSTON      CLOUDY    34  27  75 NE14      30.23R WCI  24
STEPHEN NDAWN    N/A     30  19  64 N13         N/A  WCI  20
GREENBUSH NDAW   N/A     30  19  64 N10         N/A  WCI  21
$$
  *****  WEATHER ACROSS CENTRAL AND WEST MINNESOTA  *****

CITY           SKY/WX    TMP DP  RH WIND       PRES   REMARKS
FOSSTON        FLURRIES  30  27  86 N14G21    30.18S WCI  20
BEMIDJI        LGT RAIN  35  33  92 N10       30.16S
PARK RAPIDS    CLOUDY    40  33  76 NE10      30.14R
6HR MIN TEMP:  41; 6HR MAX TEMP:  65; 6HR PCP: TRACE;

ELBOW LAKE     FAIR      47  42  85 N8        30.08R
6HR MIN TEMP:  44; 6HR MAX TEMP:  65;

WADENA         FAIR      43  36  75 N13G20    30.11R
DETROIT LAKES  FAIR      41  36  81 NE9       30.13R
MOORHEAD       MOCLDY    37  32  81 N15G22    30.18R
FERGUS FALLS   FAIR      46  39  76 NE14G23   30.09R
MORRIS MN      FAIR      45  39  81 NW10      30.07S
STAPLES        CLOUDY    45  36  70 N13G20    30.11R
$$
  *****  WEATHER ELSEWHERE ACROSS MINNESOTA  *****

CITY           SKY/WX    TMP DP  RH WIND       PRES   REMARKS
DULUTH         MOCLDY    45  38  76 N9        30.07S
6HR MIN TEMP:  44; 6HR MAX TEMP:  63; 6HR PCP: TRACE;

INTRNTL FALLS  CLOUDY    33  26  75 N10G18    30.19R WCI  25
6HR MIN TEMP:  33; 6HR MAX TEMP:  41; 6HR PCP:  0.11;

ELY            DRIZZLE   36  34  93 N6        30.12R
CLOQUET        CLOUDY    45  36  70 N7        30.10R
WHEATON        FAIR      41  37  87 NW10G18   30.13R
BRAINERD       CLOUDY    48  39  71 N15G23    30.08R
6HR MIN TEMP:  48; 6HR MAX TEMP:  64;

HIBBING        LGT RAIN  38  37  97 N10       30.12R
6HR MIN TEMP:  38; 6HR MAX TEMP:  58; 6HR PCP:  0.03;

ALEXANDRIA     FAIR      50  38  63 W7        30.06S
6HR MIN TEMP:  50; 6HR MAX TEMP:  65;

SAINT CLOUD    FAIR      50  38  63 SW7       30.05F
6HR MIN TEMP:  48; 6HR MAX TEMP:  66;

MINNEAPOLIS    FAIR      55  35  47 SW7       30.08F
6HR MIN TEMP:  55; 6HR MAX TEMP:  67;

$$

  *****  WEATHER ACROSS SOUTH DAKOTA  *****

CITY           SKY/WX    TMP DP  RH WIND       PRES   REMARKS
SIOUX FALLS    FAIR      51  36  56 SW5       30.14S
6HR MIN TEMP:  51; 6HR MAX TEMP:  66;

BROOKINGS      FAIR      47  37  68 S10       30.12F
WATERTOWN      FAIR      49  38  65 SW12      30.07F
6HR MIN TEMP:  46; 6HR MAX TEMP:  64;

HURON          FAIR      49  38  65 S10       30.09S
6HR MIN TEMP:  49; 6HR MAX TEMP:  66;

SISSETON         N/A     40  36  86 N16       30.12R
ABERDEEN       FAIR      41  34  76 NE14G24   30.12R
6HR MIN TEMP:  41; 6HR MAX TEMP:  68;

MITCHELL       FAIR      54  37  52 S9        30.11F
PIERRE         FAIR      54  30  40 SW9G20    30.04F
6HR MIN TEMP:  46; 6HR MAX TEMP:  67;

MOBRIDGE       CLOUDY    54  38  54 NE3       30.01S
RAPID CITY     FAIR      40  32  73 S8        30.01F
6HR MIN TEMP:  40; 6HR MAX TEMP:  64;

$$

  *****  SOME WEATHER IN NEARBY STATES *****

CITY           SKY/WX    TMP DP  RH WIND       PRES   REMARKS
GLASGOW MT     MOCLDY    41  35  79 E24G30    29.99F
6HR MIN TEMP:  41; 6HR MAX TEMP:  51;

GREAT FALLS MT FAIR      45  39  79 NE6       29.87S
6HR MIN TEMP:  45; 6HR MAX TEMP:  61;

CHEYENNE WY    FAIR      40  28  62 S16       30.14F
6HR MIN TEMP:  40; 6HR MAX TEMP:  50;

SCOTTSBLUFF NE FAIR      45  30  55 S9        30.11F
6HR MIN TEMP:  44; 6HR MAX TEMP:  62;

OMAHA NE       FAIR      47  35  63 CALM      30.19S
6HR MIN TEMP:  46; 6HR MAX TEMP:  67;

DES MOINES IA  FAIR      50  32  50 CALM      30.17F
6HR MIN TEMP:  50; 6HR MAX TEMP:  66;

DAVENPORT IA   FAIR      41  31  67 SE5       30.15F
6HR MIN TEMP:  41; 6HR MAX TEMP:  61;

CHICAGO IL     FAIR      42  27  55 CALM      30.14F
6HR MIN TEMP:  38; 6HR MAX TEMP:  57;

EAU CLAIRE WI  FAIR      45  38  76 CALM      30.08F
6HR MIN TEMP:  44; 6HR MAX TEMP:  65;

LA CROSSE WI   FAIR      50  41  71 SE6       30.12S
6HR MIN TEMP:  50; 6HR MAX TEMP:  68;

$$

  *****  SOME NATIONAL WEATHER *****

CITY           SKY/WX    TMP DP  RH WIND       PRES   REMARKS
LA GUARDIA NY  FAIR      51  38  60 N8        30.02S
6HR MIN TEMP:  51; 6HR MAX TEMP:  55;

RALEIGH NC     CLOUDY    55  54  96 N7        29.99S FOG
6HR MIN TEMP:  55; 6HR MAX TEMP:  64;

ATLANTA GA     MOCLDY    66  58  75 E10       29.85F
6HR MIN TEMP:  66; 6HR MAX TEMP:  77; 6HR PCP: TRACE;

NEW ORLEANS LA CLOUDY    69  66  90 N14       29.90R
6HR MIN TEMP:  69; 6HR MAX TEMP:  78; 6HR PCP:  0.05;

OKLAHOMA CITY  FAIR      48  41  76 NW10      30.18R
6HR MIN TEMP:  48; 6HR MAX TEMP:  55;

ALBUQUERQUE NM FAIR      49  29  46 E26G40    30.22R
6HR MIN TEMP:  49; 6HR MAX TEMP:  70;

SALT LAKE CITY FAIR      51  37  58 SE6       30.00F
6HR MIN TEMP:  50; 6HR MAX TEMP:  63;

LOS ANGELES CA FAIR      63  53  70 CALM      29.84S
6HR MIN TEMP:  63; 6HR M


USA.gov is the U.S. government's official web portal to all federal, state and local government web resources and services.